Regional Weather Roundup
Issued by NWS Newport/Morehead, NC

Current Version | Previous Version | Text Only | Print | Product List | Glossary On
Versions: 1 2 3 4 5 6 7 8 9 10 11 12 13 14 15 16 17 18 19 20 21 22 23 24 25 26 27 28 29 30 31 32 33 34 35 36 37 38 39 40 41 42 43 44 45 46 47 48 49 50
000
ASUS42 KMHX 261522
RWRMHX
WEATHER ROUNDUP FOR EASTERN NORTH CAROLINA
NATIONAL WEATHER SERVICE NEWPORT/MOREHEAD CITY NC
1000 AM EST FRI DEC 26 2014

NOTE: "FAIR" INDICATES FEW OR NO CLOUDS BELOW 12,000 FEET
WITH NO SIGNIFICANT WEATHER AND/OR OBSTRUCTIONS TO VISIBILITY

NCZ015>017-031-032-045>047-102-103-261600-
NORTH COAST

CITY           SKY/WX    TMP DP  RH WIND       PRES   REMARKS
EDENTON        SUNNY     47  39  73 CALM      30.37R
ELIZABETH CITY SUNNY     50  38  63 W3        30.36R
KITTY HAWK     SUNNY     50  44  80 CALM      30.34R
MANTEO         SUNNY     50  45  81 CALM      30.36R

$$

NCZ045>047-081-094-103-104-261600-
CENTRAL COAST

CITY           SKY/WX    TMP DP  RH WIND       PRES   REMARKS
FRISCO         MOSUNNY   54  45  71 CALM      30.34R
SWANQUARTER      N/A     50 N/A N/A W1        30.33S

$$

NCZ095-097-098-100-101-261600-
SOUTHERN COAST

CITY           SKY/WX    TMP DP  RH WIND       PRES   REMARKS
BEAUFORT       SUNNY     53  41  63 CALM      30.36R
CEDAR ISLAND     N/A     50 N/A N/A NW3       30.39S
JACKSONVILLE   NOT AVBL
PINEY ISLAND   SUNNY     55  42  61 CALM      30.36R
WILMINGTON     SUNNY     52  40  63 NE7       30.36S


$$

NCZ011>013-027>030-043-044-078>080-089-090>093-098-261600-
COASTAL PLAIN

CITY           SKY/WX    TMP DP  RH WIND       PRES   REMARKS
AHOSKIE        SUNNY     43  36  77 CALM      30.37R
CLINTON        SUNNY     51  40  66 CALM      30.39R
ELIZABETHTOWN  SUNNY     49  39  68 CALM      30.38R
GOLDSBORO      SUNNY     47  45  93 VRB1      30.36R
GREENVILLE     MOSUNNY   48  37  66 CALM      30.37S
HAVELOCK       MOSUNNY   51  42  71 CALM      30.38R
KENANSVILLE    SUNNY     49  39  67 CALM      30.38S
KINSTON        SUNNY     48  39  71 CALM      30.38R
NEW BERN       SUNNY     51  42  71 CALM      30.38R
RICHLANDS      SUNNY     50  36  57 CALM      30.37S
ROCKY MOUNT    SUNNY     46  37  71 CALM      30.37R
WASHINGTON     MOSUNNY   48  37  65 N3        30.38R
WHITEVILLE     SUNNY     51  40  68 CALM      30.37R

$$

AMZ130-135-150-152-154-156-158-170-250-252-270-ANZ085-086-088-633-658-670-261600-
MARINE OBSERVATIONS

STATION/POSITION TIME  TEMP    WIND        PRES    WAVE   SWELL
                       AIR SEA DIR/SP/G            HT/PER HT/PER
                 (UTC) (F)     (DEG/KT/KT) (MB)    (FT/S) (FT/S)
CHESAPEAKE LIGHT 1500   49      70/  5/  5 1028.5
64 E VA BEACH    1500   51 52   30/  6/  6 1026.8    3/ 8   2/ 8
DUCK             1500   48 50  290/  5/  6 1026.9
2 E DUCK         1500      50                N/A     2/ 8
10 NE DUCK       1500      50                N/A     2/ 9
OREGON INLET     1500   51 54  240/  3/  4 1027.7
13E OREGON INLT  1500      50                N/A     2/ 9   2/11
HATTERAS CG      1500   51 55  330/  4/  5 1027.9
DIAMOND BUOY     1500   57                 1027.2    3/ 7
17 S OCRACOKE    NOT AVBL
CAPE LOOKOUT     1500   53     350/  5/  6 1027.7
BEAUFORT LAB     1500   51 54  360/  3/  3 1027.0
30 SE NEW RIVER  1500   55 60   20/  6/ 10 1028.1    2/ 7   2/ 7
5 SE WRIGHTSVLE  NOT AVBL
225 S CAPE HAT   1450   68 71   70/  8/ 12 1025.9    4/ 6   3/ 6
41 SE CHARLESTON 1500   63 71   30/  8/ 10 1026.5    2/ 8   2/ 8

$$


USA.gov is the U.S. government's official web portal to all federal, state and local government web resources and services.